Info for pilots

Image

Airfield Info:

EBUL
N51 08.7 - E003 28.6
ELEV 95' / 29m
RWY 07 / 25
799m * 45m (CIV) - 2980m (MIL)
Ursel Radio 135.130
Tel Aero Club Brugge : +32(0)9 374 25 75
Tel Vliegclub Ursel : +32(0)9 374 12 90

Operational Hours
FRI: 14h00LT - SS+30 MIN
SAT, SUN and HOL: TKOF and LDG: 10h00LT - SS+30 MIN
After 20h00LT to SS+30 MIN: only LDG allowed (PN)

Local Traffic Regulations
The use of the AD is subject to PPR from the OPR;
AD given in concession to the CIV club outside MIL ACT;
Solo training flights can only be performed after two reconnaissance flights with instructor. The solo training flight must be performed within six weeks after the first reconnaissance flight;
Jet aircraft operations not allowed.

Obstacles:
trees between 10M AGL and 22M AGL, caution when crosswind:
North of the RWY, 75M from CL, along the whole length of the RWY;
South of the RWY, 75M from CL, and at THR RWY 25 from THR RWY 07 to 140M east of THR RWY 07



Image

Image

Watch out!

Flight Procedures
RWY 07 and 25 left hand circuit, 1.200 FT QNH

Image

Taxi procedures:
RWY 07 (TKOF):
taxi on the north side of the RWY to the HLDG position of RWY 07

RWY 07 (LDG):
after landing roll out to the second intersection (THR RWY 25), turn left, turn left again, taxi via the TWY to the first intersection, turn left, cross the RWY (check for landing ACFT), taxi on the south side of the RWY to the AD reporting office

RWY 25 (TKOF):
taxi on the north side of the first intersection, turn left, next turn right, taxi via the TWY to the second intersection, turn right, taxi to the HLDG of RWY 25

RWY 25 (LDG):
after landing roll out to the end of the RWY, taxi on the south side of the RWY to the AD reporting office.





Image

Taxi & Circuit?

Image
Image
Image
Image

Current Metars - Auto refresh

EBOS - Oostende
2021/02/25 02:50 EBOS 250250Z 21005KT CAVOK 07/06 Q1024 NOSIG


EBAW - Antwerpen
2021/02/25 02:50 EBAW 250250Z AUTO 19005KT CAVOK 11/07 Q1025


EBBR - Brussel
2021/02/25 02:50 EBBR 250250Z 19006KT CAVOK 09/07 Q1025 NOSIG

Source : NOAA.GOV

Current TAFs - Auto refresh

EBOS - Oostende
2021/02/24 18:27 TAF EBOS 241720Z 2418/2524 18011KT CAVOK PROB30 TEMPO 2509/2519 BKN008 BECMG 2512/2514 29008KT PROB40 TEMPO 2519/2523 3800 RA SHRA BKN006 PROB30 TEMPO 2523/2524 BKN006

EBAW - Antwerpen
2021/02/25 03:29 TAF EBAW 250210Z 2503/2512 20006KT CAVOK= TAF LGIO 250200Z 2503/2512 VRB03KT 9999 FEW020 PROB40 TEMPO 2503/2509 4000 BR SCT010 PROB30 TEMPO 2503/2508 0500 FG BKN004

EBBR - Brussel
2021/02/24 18:27 TAF TAF EBBR 241720Z 2418/2524 18010KT CAVOK PROB30 TEMPO 2513/2520 BKN008 BECMG 2514/2516 30006KT PROB40 TEMPO 2520/2524 3500 RA SHRA BKN008TCU

Source : NOAA.GOV
Image

Webcam

Direction runway 07 :